Flag for Switzerland Weather past 2 weeks in Meyrin, Geneva, Switzerland

30 °F


Feels Like: 25 °F
Forecast: 39 / 48 °F
Wind: 5 mph from Northwest

Location: Geneva Cointrin Airport

Current Time: Nov 29, 2015 at 2:59:58 AM

Latest Report: Nov 29, 2015 at 1:50 AM

Visibility: 10 mi

Pressure: 30.33 "Hg

Humidity: 93%

Dew point: 28 °F

Location of MeyrinLocation

Historic Weather in Meyrin — Graph


Meyrin temperature yesterday

Maximum temperature yesterday: 43 °F (at 2:20 PM)
Minimum temperature yesterday: 28 °F (at 11:20 PM)
Average temperature yesterday: 35 °F

Past Weeks' High & Low Weather Summary

High64 °F (Nov 16, 3:50 PM)100% (Nov 14, 4:50 AM)30.51 "Hg (Nov 14, 4:50 AM)
Low25 °F (Nov 24, 7:20 AM)39% (Nov 15, 12:20 PM)29.50 "Hg (Nov 21, 12:20 PM)
Average43 °F76%30.09 "Hg
* Reported Nov 14 1:20 AM — Nov 29 1:20 AM, Meyrin, Weather by CustomWeather, © 2015

Note: Actual official high and low records may vary slightly from our data, if they occured in-between our weather recording intervals... More about our weather records


Meyrin weather history for previous 24 hours

Time TempWeatherWind HumidityBarometerVisibility
1:20 AM
Sun, Nov 29
28 °FPassing clouds.3 mph93%30.33 "HgN/A
12:50 AM28 °FClear.1 mph93%30.33 "Hg10 mi
12:20 AM28 °FClear.2 mph93%30.30 "Hg10 mi
11:50 PM
Sat, Nov 28
28 °FClear.1 mph93%30.30 "Hg10 mi
11:20 PM28 °FClear.2 mph93%30.30 "Hg10 mi
10:50 PM30 °FClear.2 mph93%30.30 "Hg10 mi
10:20 PM30 °FClear.1 mph93%30.30 "Hg10 mi
9:20 PM32 °FClear.1 mph87%30.27 "Hg10 mi
8:50 PM34 °FClear.3 mph87%30.27 "Hg10 mi
8:20 PM34 °FPassing clouds.3 mph87%30.27 "HgN/A
7:50 PM34 °FPassing clouds.5 mph87%30.27 "HgN/A
7:20 PM36 °FPassing clouds.2 mph87%30.24 "HgN/A
6:50 PM37 °FPassing clouds.3 mph81%30.24 "HgN/A
6:20 PM39 °FPassing clouds.5 mph75%30.24 "HgN/A
5:50 PM39 °FPassing clouds.5 mph81%30.24 "HgN/A
5:20 PM39 °FPassing clouds.7 mph81%30.21 "HgN/A
4:50 PM39 °FPassing clouds.6 mph75%30.21 "HgN/A
4:20 PM43 °FPassing clouds.6 mph66%30.18 "HgN/A
3:50 PM43 °FPassing clouds.6 mph71%30.18 "HgN/A
3:20 PM43 °FPassing clouds.6 mph71%30.15 "HgN/A
2:50 PM43 °FPassing clouds.3 mph71%30.15 "HgN/A
2:20 PM43 °FPassing clouds.5 mph66%30.15 "HgN/A
1:50 PM41 °FPassing clouds.3 mph70%30.12 "HgN/A
1:20 PM41 °FScattered clouds.6 mph70%30.12 "HgN/A
12:50 PM39 °FPartly sunny.5 mph75%30.12 "HgN/A
12:20 PM39 °FPartly sunny.2 mph75%30.12 "HgN/A
11:50 AM37 °FPartly sunny.3 mph75%30.12 "HgN/A
11:20 AM37 °FBroken clouds.2 mph75%30.12 "HgN/A
10:50 AM36 °FBroken clouds.2 mph81%30.12 "HgN/A
10:20 AM36 °FBroken clouds.3 mph81%30.09 "HgN/A
9:50 AM36 °FLight snow. Broken clouds.2 mph81%30.09 "Hg6 mi
9:20 AM34 °FLight snow. Partly sunny.2 mph87%30.09 "Hg4 mi
8:50 AM34 °FLight snow. Broken clouds.3 mph87%30.07 "Hg4 mi
7:20 AM34 °FLight snow. Passing clouds.3 mph81%30.01 "HgN/A
6:50 AM34 °FPassing clouds.3 mph81%30.01 "HgN/A
6:20 AM34 °FPassing clouds.2 mph81%30.01 "HgN/A
5:50 AM34 °FPassing clouds.2 mph81%30.01 "HgN/A
5:20 AM32 °FPassing clouds.1 mph87%30.01 "HgN/A
4:50 AM32 °FPassing clouds.2 mph87%30.01 "HgN/A
4:20 AM32 °FPassing clouds.3 mph87%30.01 "HgN/A
3:50 AM30 °FPassing clouds.3 mph86%30.01 "HgN/A
3:20 AM30 °FClear.2 mph86%30.01 "Hg10 mi
2:50 AM30 °FPassing clouds.1 mph86%30.01 "HgN/A
Weather by CustomWeather, © 2015

See weather overviewHow to use our weather pages